Weather in Logachevka

Russia / Belgorod Oblast     50°00′15″N   37°57′54″E
temp.,
°C
wind,
m/s
gust,
m/s
humid.,
%
clouds,
%
prec.,
mm/h
press.,
hPa
HPBL,
m
11 april, sun
sun1100:00+5n37646 0.0 1025120
03:00+4nne3470100 0.0 102660
06:00+4n31070100 0.0 1027236
09:00+8ne61152100 0.0 1028716
12:00+12nne794060 0.0 10261033
15:00+13ne8940100 0.0 10261193
18:00+9nne71362100 0.0 1026727
21:00+9ne61358100 0.0 1026497
12 april, mon
mon1200:00+8ne61170100 0.0 1025407
03:00+7ne51189100 0.0 1024321
06:00+7ne5119686 0.0 1024298
09:00+12ene61078100 0.0 1023407
12:00+19e79446 0.0 1021997
15:00+23ese7103078 0.0 10201582
18:00+20se5104393 0.0 1021358
21:00+14se356226 0.0 102370
13 april, tue
tue1300:00+12e357249 0.0 102266
03:00+11ese37787 0.0 1023138
06:00+11e4127375 0.0 1023297
09:00+15ese695675 0.0 1023552
12:00+19ese79385 0.0 10221296
15:00+20se8113410 0.0 10212199
18:00+14s4867100 0.1 1021367
21:00+14sse5126494 0.1 1022572
14 april, wed
wed1400:00+11ese3778100 0.0 1021160
03:00+11ene1277100 0.0 102032
06:00+11ne2377100 0.0 101962
09:00+14se5954100 0.0 1019510
12:00+18se6840100 0.0 10181452
15:00+20sse6829100 0.0 10172093
18:00+17s3739100 0.0 1016142
21:00+15se1242100 0.0 101614
15 april, thu
thu1500:00+12s1151100 0.0 101610
03:00+13ne2251100 0.0 101530
06:00+12e2258100 0.0 101533
09:00+15se2350100 0.0 1015402
12:00+18sse3441100 0.0 10141333
15:00+19se4640100 0.0 10132199
18:00+17ese4746100 0.0 1012240
21:00+14se2460100 0.0 101297